User: anonymous   Login
Location: ????????
(54.9045°N, 39.1041°E)
Time: 03:53:58
(UTC+00:00)
Language:

Cosmos 192 - Orbit

View from above orbital plane
View from above orbital plane
View from above satellite
View from above satellite

Ground track
Ground track

The orbit data is extracted from the following two-line orbital elements,

1 03047U 67116A   24174.57663871  .00000462  00000-0  11021-3 0  9996
2 03047  74.0131 314.1202 0009127 296.6576  63.3652 14.56575834993076
Epoch (UTC): 22 June 2024 13:50:21
Eccentricity: 0.0009127
inclination: 74.0131°
perigee height: 698 km
apogee height: 711 km
right ascension of ascending node: 314.1202°
argument of perigee: 296.6576°
revolutions per day: 14.56575834
mean anomaly at epoch: 63.3652°
orbit number at epoch: 99307

The dashed part of the orbit path shows where the satellite is in the earth's shadow,  

DLR